EXS61RJ EGCC-GCLP

Flight info

Callsign EXS61RJ
Flight time N/A
Altitude 37000
Route ASMIM DCT NOKIN P17 BEPHE DCT OSSEP DCT ELNIF DCT ZESPE DCT KLAKI DCT SALCO DCT ERWAN DCT BALDA DCT BATAX DCT PINOX DCT ELDUK DCT GUWEX DCT OSLAD UR724 IBALU UN857 TERTO
Aircraft A21N/M-SDE2E3FGHIRWXY/LB1

Departure

Time 2026-04-30 18:25
Airport Manchester Airport (EGCC)

Arrival

Time N/A
Airport Gran Canaria Airport (GCLP)
Time Latitude Longitude Altitude Speed Heading
2026-04-30 17:39 53.36439 -2.27738 261 ft 0 kts 45°
2026-04-30 18:11 53.36427 -2.27759 260 ft 3 kts 45°
2026-04-30 18:11 53.36382 -2.27821 260 ft 3 kts
2026-04-30 18:12 53.36350 -2.27794 260 ft 3 kts 300°
2026-04-30 18:13 53.36340 -2.27740 260 ft 0 kts 284°
2026-04-30 18:16 53.36344 -2.27764 260 ft 3 kts 285°
2026-04-30 18:17 53.36359 -2.27809 260 ft 6 kts 309°
2026-04-30 18:17 53.36388 -2.27863 260 ft 7 kts 307°
2026-04-30 18:17 53.36316 -2.28046 260 ft 13 kts 204°
2026-04-30 18:18 53.36226 -2.28071 260 ft 14 kts 160°
2026-04-30 18:18 53.36150 -2.27961 260 ft 15 kts 142°
2026-04-30 18:18 53.36057 -2.27886 260 ft 15 kts 192°
2026-04-30 18:18 53.35963 -2.27866 260 ft 16 kts 149°
2026-04-30 18:19 53.35853 -2.27856 258 ft 17 kts 186°
2026-04-30 18:19 53.35735 -2.27876 252 ft 17 kts 186°
2026-04-30 18:19 53.35615 -2.27896 245 ft 18 kts 186°
2026-04-30 18:19 53.35491 -2.27917 245 ft 18 kts 186°
2026-04-30 18:20 53.35423 -2.27977 242 ft 8 kts 219°
2026-04-30 18:20 53.35375 -2.28052 242 ft 10 kts 225°
2026-04-30 18:20 53.35319 -2.28144 240 ft 12 kts 224°
2026-04-30 18:20 53.35253 -2.28257 237 ft 15 kts 229°
2026-04-30 18:21 53.35177 -2.28414 234 ft 22 kts 231°
2026-04-30 18:21 53.35079 -2.28617 234 ft 23 kts 231°
2026-04-30 18:21 53.34971 -2.28818 232 ft 23 kts 224°
2026-04-30 18:21 53.34857 -2.29018 225 ft 24 kts 226°
2026-04-30 18:22 53.34749 -2.29231 222 ft 24 kts 232°
2026-04-30 18:22 53.34681 -2.29326 218 ft 0 kts 195°
2026-04-30 18:23 53.34680 -2.29326 218 ft 1 kts 195°
2026-04-30 18:23 53.34666 -2.29333 216 ft 3 kts 195°
2026-04-30 18:23 53.34633 -2.29342 220 ft 6 kts 184°
2026-04-30 18:23 53.34577 -2.29323 220 ft 12 kts 153°
2026-04-30 18:24 53.34575 -2.29150 220 ft 9 kts 51°
2026-04-30 18:24 53.34623 -2.29050 220 ft 17 kts 51°
2026-04-30 18:24 53.34787 -2.28711 233 ft 70 kts 51°
2026-04-30 18:25 53.35227 -2.27798 243 ft 130 kts 51°
2026-04-30 18:25 53.36616 -2.24903 932 ft 167 kts 56°
2026-04-30 18:25 53.37346 -2.23342 1556 ft 174 kts 59°
2026-04-30 18:26 53.39231 -2.20249 2483 ft 218 kts 30°
2026-04-30 18:26 53.40841 -2.19847 2792 ft 256 kts 355°
2026-04-30 18:26 53.42604 -2.20881 3231 ft 280 kts 332°
2026-04-30 18:27 53.44783 -2.26215 4612 ft 283 kts 281°
2026-04-30 18:27 53.45245 -2.29423 4996 ft 281 kts 278°
2026-04-30 18:28 53.46169 -2.35872 6514 ft 287 kts 280°
2026-04-30 18:28 53.46671 -2.39136 7286 ft 290 kts 280°
2026-04-30 18:28 53.47035 -2.43541 8262 ft 286 kts 259°
2026-04-30 18:29 53.46456 -2.49043 9505 ft 289 kts 253°